Tracking 17844 objects as of 27-August-2016
HD Live streaming from Space Station
objects crossing your sky now

GLOBALSTAR M048

Track GLOBALSTAR M048 now!
10-day predictions
GLOBALSTAR M048 is classified as:


NORAD ID: 25872
Int'l Code: 1999-041A
Perigee: 1,987.3 km
Apogee: 2,010.1 km
Inclination: 51.9 °
Period: 127.0 minutes
Semi major axis: 8369 km
RCS: 2.5743 m2 (large)
Launch date: July 25, 1999
Source: Globalstar (GLOB)
Launch site: AIR FORCE EASTERN TEST RANGE (AFETR)
Your satellite tracking list
Your tracking list is empty





NASA's NSSDC Master Catalog

Two Line Element Set (TLE):
1 25872U 99041A   16238.93788084 -.00000078 +00000-0 -20592-3 0  9992
2 25872 051.9377 052.3389 0013654 016.7587 153.2324 11.33806914760279
Source of the keplerian elements: AFSPC

N2YO: 496